Weather History for Elefsis, Greece

Change the Weather History Date:

Friday, September 20, 2013

  Actual Average Record
Temperature  
Mean Temperature 78 °F -  
Max Temperature 86 °F 75 °F 93 °F (2001)
Min Temperature 71 °F 59 °F 57 °F (2008)
Cooling Degree Days 14    
Growing Degree Days 28 (Base 50)    
Moisture  
Dew Point 58 °F    
Average Humidity 51    
Maximum Humidity 69    
Minimum Humidity 29    
Precipitation  
Precipitation 0.00 in - - ()
Sea Level Pressure  
Sea Level Pressure 29.84 in    
Wind  
Wind Speed 6 mph ()    
Max Wind Speed 12 mph    
Max Gust Speed -    
Visibility 6.2 miles    
Events      
Averages and records for this station are not official NWS values.
T = Trace of Precipitation, MM = Missing Value Source: Averaged Metar Reports

Daily Weather History Graph

Daily Weather History Graph

Search for Another Location

Airport:

Trip Planner

Search our weather history database for the weather conditions in past years. The results will help you decide how hot, cold, wet, or windy it might be!

Date:

Astronomy

Sep. 20, 2013 Rise Set
Actual Time 7:11 AM EEST 7:25 PM EEST
Civil Twilight 6:45 AM EEST 7:52 PM EEST
Nautical Twilight 6:14 AM EEST 8:23 PM EEST
Astronomical Twilight 5:43 AM EEST 8:54 PM EEST
Moon 7:50 PM EEST (9/20) 8:04 AM EEST (9/20)
Length of Visible Light 13h 06m
Length of Day
12h 14m
Full, 99% of the Moon is Illuminated
Sep 20
Full
Sep 27
Last Quarter
Oct 5
New
Oct 12
First Quarter
Oct 19
Full

Hourly Weather History & Observations

Time (EEST) Temp. Heat Index Dew Point Humidity Pressure Visibility Wind Dir Wind Speed Gust Speed Precip Events Conditions
12:50 AM 75.2 °F - 55.4 °F 50% 29.74 in - NNW 5.8 mph - N/A   Clear
1:50 AM 73.4 °F - 55.4 °F 53% 29.74 in - NNW 8.1 mph - N/A   Clear
2:50 AM 71.6 °F - 57.2 °F 60% 29.77 in - NNW 4.6 mph - N/A   Clear
3:50 AM 73.4 °F - 57.2 °F 57% 29.77 in - NNW 6.9 mph - N/A   Clear
4:50 AM 71.6 °F - 59.0 °F 64% 29.77 in 6.2 mi North 9.2 mph - N/A   Partly Cloudy
5:50 AM 71.6 °F - 59.0 °F 64% 29.77 in - NW 8.1 mph - N/A   Clear
6:20 AM 71.6 °F - 57.2 °F 60% 29.77 in - WNW 4.6 mph - N/A   Clear
6:50 AM 71.6 °F - 57.2 °F 60% 29.80 in 6.2 mi West 6.9 mph - N/A   Partly Cloudy
7:20 AM 71.6 °F - 55.4 °F 57% 29.80 in 6.2 mi NW 4.6 mph - N/A   Scattered Clouds
7:50 AM 73.4 °F - 55.4 °F 53% 29.80 in 6.2 mi NW 8.1 mph - N/A   Scattered Clouds
8:20 AM 75.2 °F - 53.6 °F 47% 29.80 in 6.2 mi WNW 6.9 mph - N/A   Scattered Clouds
8:50 AM 75.2 °F - 53.6 °F 47% 29.80 in 6.2 mi NNW 8.1 mph - N/A   Scattered Clouds
9:20 AM 77.0 °F - 53.6 °F 44% 29.83 in 6.2 mi NNW 6.9 mph - N/A   Scattered Clouds
9:50 AM 78.8 °F - 53.6 °F 42% 29.83 in 6.2 mi North 6.9 mph - N/A   Scattered Clouds
10:20 AM 80.6 °F 80.3 °F 53.6 °F 39% 29.83 in 6.2 mi Calm Calm - N/A   Scattered Clouds
10:50 AM 82.4 °F - 50.0 °F 32% 29.83 in 6.2 mi NW 6.9 mph - N/A   Mostly Cloudy
11:20 AM 84.2 °F - 50.0 °F 30% 29.83 in 6.2 mi NNW 9.2 mph - N/A   Scattered Clouds
11:50 AM 82.4 °F - 50.0 °F 32% 29.83 in 6.2 mi NNW 6.9 mph - N/A   Scattered Clouds
12:20 PM 82.4 °F - 50.0 °F 32% 29.83 in 6.2 mi NNW 6.9 mph - N/A   Scattered Clouds
12:50 PM 86.0 °F - 50.0 °F 29% 29.83 in 6.2 mi North 6.9 mph - N/A   Scattered Clouds
1:20 PM 84.2 °F - 50.0 °F 30% 29.83 in 6.2 mi North 5.8 mph - N/A   Scattered Clouds
1:50 PM 84.2 °F 83.0 °F 55.4 °F 37% 29.83 in 6.2 mi SSW 8.1 mph - N/A   Scattered Clouds
2:20 PM 84.2 °F 83.0 °F 55.4 °F 37% 29.86 in 6.2 mi SSW 10.4 mph - N/A   Mostly Cloudy
2:50 PM 82.4 °F 82.0 °F 57.2 °F 42% 29.83 in 6.2 mi SSW 6.9 mph - N/A   Mostly Cloudy
3:20 PM 82.4 °F 81.7 °F 55.4 °F 39% 29.83 in 6.2 mi South 9.2 mph - N/A   Mostly Cloudy
3:50 PM 82.4 °F 82.0 °F 57.2 °F 42% 29.83 in 6.2 mi South 11.5 mph - N/A   Mostly Cloudy
4:20 PM 80.6 °F 81.1 °F 59.0 °F 48% 29.86 in 6.2 mi South 10.4 mph - N/A   Mostly Cloudy
4:50 PM 80.6 °F 81.5 °F 60.8 °F 51% 29.86 in 6.2 mi South 6.9 mph - N/A   Mostly Cloudy
5:20 PM 80.6 °F 81.5 °F 60.8 °F 51% 29.86 in 6.2 mi South 8.1 mph - N/A   Mostly Cloudy
5:50 PM 80.6 °F 81.5 °F 60.8 °F 51% 29.86 in 6.2 mi South 9.2 mph - N/A   Mostly Cloudy
6:20 PM 80.6 °F 81.8 °F 62.6 °F 54% 29.86 in 6.2 mi South 9.2 mph - N/A   Mostly Cloudy
6:50 PM 80.6 °F 81.8 °F 62.6 °F 54% 29.89 in 6.2 mi South 8.1 mph - N/A   Mostly Cloudy
7:20 PM 78.8 °F - 64.4 °F 61% 29.89 in 6.2 mi South 6.9 mph - N/A   Mostly Cloudy
7:50 PM 78.8 °F - 62.6 °F 57% 29.89 in 6.2 mi South 6.9 mph - N/A   Scattered Clouds
8:20 PM 77.0 °F - 66.2 °F 69% 29.92 in 6.2 mi SSE 4.6 mph - N/A   Scattered Clouds
8:50 PM 77.0 °F - 66.2 °F 69% 29.92 in 6.2 mi South 4.6 mph - N/A   Scattered Clouds
9:20 PM 77.0 °F - 66.2 °F 69% 29.92 in 6.2 mi South 4.6 mph - N/A   Scattered Clouds
9:50 PM 75.2 °F - 60.8 °F 61% 29.92 in 6.2 mi Calm Calm - N/A   Partly Cloudy
10:20 PM 73.4 °F - 62.6 °F 69% 29.95 in 6.2 mi Calm Calm - N/A   Partly Cloudy
10:50 PM 73.4 °F - 62.6 °F 69% 29.95 in 6.2 mi Calm Calm - N/A   Partly Cloudy
11:20 PM 71.6 °F - 60.8 °F 69% 29.95 in 6.2 mi Calm Calm - N/A   Partly Cloudy
11:50 PM 71.6 °F - 60.8 °F 69% 29.95 in 6.2 mi Calm Calm - N/A   Partly Cloudy